Year,Month,Day,Hour,Minute,Value (Times are PST for temperature in C)
2009,10,18,09,48,11.20
2009,10,18,09,49,11.20
2009,10,18,09,50,11.20
2009,10,18,09,51,11.20
2009,10,18,09,52,11.20
2009,10,18,09,53,11.20
2009,10,18,09,54,11.20
2009,10,18,09,55,11.20
2009,10,18,09,56,11.20
2009,10,18,09,57,11.20
2009,10,18,09,58,11.20
2009,10,18,09,59,11.20
2009,10,18,10,00,11.20
2009,10,18,10,01,11.20
2009,10,18,10,02,11.30
2009,10,18,10,03,11.30
2009,10,18,10,04,11.30
2009,10,18,10,05,11.30
2009,10,18,10,06,11.30
2009,10,18,10,07,11.30
2009,10,18,10,08,11.40
2009,10,18,10,09,11.40
2009,10,18,10,10,11.40
2009,10,18,10,11,11.50
2009,10,18,10,12,11.60
2009,10,18,10,13,11.60
2009,10,18,10,14,11.60
2009,10,18,10,15,11.60
2009,10,18,10,16,11.60
2009,10,18,10,17,11.60
2009,10,18,10,18,11.60
2009,10,18,10,19,11.70
2009,10,18,10,20,11.70
2009,10,18,10,21,11.70
2009,10,18,10,22,11.70
2009,10,18,10,23,11.70
2009,10,18,10,24,11.80
2009,10,18,10,25,11.80
2009,10,18,10,26,11.80
2009,10,18,10,27,11.90
2009,10,18,10,28,11.90
2009,10,18,10,29,12.00
2009,10,18,10,30,12.00
2009,10,18,10,31,12.10
2009,10,18,10,32,12.10
2009,10,18,10,33,12.10
2009,10,18,10,34,12.00
2009,10,18,10,35,12.00
2009,10,18,10,36,11.90
2009,10,18,10,37,11.90
2009,10,18,10,38,11.80
2009,10,18,10,39,11.80
2009,10,18,10,40,11.80
2009,10,18,10,41,11.80
2009,10,18,10,42,11.80
2009,10,18,10,43,11.80
2009,10,18,10,44,11.80
2009,10,18,10,45,11.70
2009,10,18,10,46,11.70
2009,10,18,10,47,11.70
2009,10,18,10,48,11.70
2009,10,18,10,49,11.70
2009,10,18,10,50,11.70
2009,10,18,10,51,11.70
2009,10,18,10,52,11.70
2009,10,18,10,53,11.70
2009,10,18,10,54,11.70
2009,10,18,10,55,11.70
2009,10,18,10,56,11.70
2009,10,18,10,57,11.70
2009,10,18,10,58,11.70
2009,10,18,10,59,11.70
2009,10,18,11,00,11.70
2009,10,18,11,01,11.70
2009,10,18,11,02,11.70
2009,10,18,11,03,11.70
2009,10,18,11,04,11.70
2009,10,18,11,05,11.70
2009,10,18,11,06,11.70
2009,10,18,11,07,11.70
2009,10,18,11,08,11.70
2009,10,18,11,09,11.70
2009,10,18,11,10,11.70
2009,10,18,11,11,11.70
2009,10,18,11,12,11.70
2009,10,18,11,13,11.70
2009,10,18,11,14,11.70
2009,10,18,11,15,11.70
2009,10,18,11,16,11.70
2009,10,18,11,17,11.70
2009,10,18,11,18,11.70
2009,10,18,11,19,11.70
2009,10,18,11,20,11.70
2009,10,18,11,21,11.70
2009,10,18,11,22,11.70
2009,10,18,11,23,11.70
2009,10,18,11,24,11.70
2009,10,18,11,25,11.70
2009,10,18,11,26,11.70
2009,10,18,11,27,11.70
2009,10,18,11,28,11.70
2009,10,18,11,29,11.70
2009,10,18,11,30,11.70
2009,10,18,11,31,11.70
2009,10,18,11,32,11.70
2009,10,18,11,33,11.70
2009,10,18,11,34,11.70
2009,10,18,11,35,11.80
2009,10,18,11,36,11.80
2009,10,18,11,37,11.80
2009,10,18,11,38,11.80
2009,10,18,11,39,11.90
2009,10,18,11,40,11.90
2009,10,18,11,41,11.90
2009,10,18,11,42,11.90
2009,10,18,11,43,11.90
2009,10,18,11,44,11.90
2009,10,18,11,45,11.90
2009,10,18,11,46,11.90
2009,10,18,11,47,11.90
2009,10,18,11,48,11.90
2009,10,18,11,49,12.00
2009,10,18,11,50,12.00
2009,10,18,11,51,12.00
2009,10,18,11,52,12.00
2009,10,18,11,53,12.00
2009,10,18,11,54,12.00
2009,10,18,11,55,12.00
2009,10,18,11,56,12.00
2009,10,18,11,57,12.10
2009,10,18,11,58,12.00
2009,10,18,11,59,12.00
2009,10,18,12,00,12.00
2009,10,18,12,01,12.00
2009,10,18,12,02,12.10
2009,10,18,12,03,12.10
2009,10,18,12,04,12.10
2009,10,18,12,05,12.10
2009,10,18,12,06,12.10
2009,10,18,12,07,12.20
2009,10,18,12,08,12.20
2009,10,18,12,09,12.20
2009,10,18,12,10,12.30
2009,10,18,12,11,12.30
2009,10,18,12,12,12.40
2009,10,18,12,13,12.50
2009,10,18,12,14,12.60
2009,10,18,12,15,12.60
2009,10,18,12,16,12.70
2009,10,18,12,17,12.70
2009,10,18,12,18,12.80
2009,10,18,12,19,12.80
2009,10,18,12,20,12.80
2009,10,18,12,21,12.90
2009,10,18,12,22,12.90
2009,10,18,12,23,13.00
2009,10,18,12,24,13.00
2009,10,18,12,25,13.10
2009,10,18,12,26,13.10
2009,10,18,12,27,13.20
2009,10,18,12,28,13.20
2009,10,18,12,29,13.20
2009,10,18,12,30,13.20
2009,10,18,12,31,13.20
2009,10,18,12,32,13.20
2009,10,18,12,33,13.20
2009,10,18,12,34,13.20
2009,10,18,12,35,13.20
2009,10,18,12,36,13.20
2009,10,18,12,37,13.20
2009,10,18,12,38,13.20
2009,10,18,12,39,13.20
2009,10,18,12,40,13.20
2009,10,18,12,41,13.20
2009,10,18,12,42,13.20
2009,10,18,12,43,13.20
2009,10,18,12,44,13.30
2009,10,18,12,45,13.30
2009,10,18,12,46,13.20
2009,10,18,12,47,13.20
2009,10,18,12,48,13.20
2009,10,18,12,49,13.10
2009,10,18,12,50,13.00
2009,10,18,12,51,13.00
2009,10,18,12,52,13.00
2009,10,18,12,53,13.00
2009,10,18,12,54,12.90
2009,10,18,12,55,12.90
2009,10,18,12,56,12.90
2009,10,18,12,57,12.80
2009,10,18,12,58,12.80
2009,10,18,12,59,12.80
2009,10,18,13,00,12.80
2009,10,18,13,01,12.80
2009,10,18,13,02,12.70
2009,10,18,13,03,12.70
2009,10,18,13,04,12.70
2009,10,18,13,05,12.60
2009,10,18,13,06,12.60
2009,10,18,13,07,12.60
2009,10,18,13,08,12.60
2009,10,18,13,09,12.50
2009,10,18,13,10,12.50
2009,10,18,13,11,12.40
2009,10,18,13,12,12.40
2009,10,18,13,13,12.40
2009,10,18,13,14,12.40
2009,10,18,13,15,12.40
2009,10,18,13,16,12.40
2009,10,18,13,17,12.40
2009,10,18,13,18,12.40
2009,10,18,13,19,12.40
2009,10,18,13,20,12.40
2009,10,18,13,21,12.40
2009,10,18,13,22,12.40
2009,10,18,13,23,12.40
2009,10,18,13,24,12.40
2009,10,18,13,25,12.40
2009,10,18,13,26,12.50
2009,10,18,13,27,12.50
2009,10,18,13,28,12.50
2009,10,18,13,29,12.50
2009,10,18,13,30,12.60
2009,10,18,13,31,12.60
2009,10,18,13,32,12.50
2009,10,18,13,33,12.50
2009,10,18,13,34,12.50
2009,10,18,13,35,12.40
2009,10,18,13,36,12.40
2009,10,18,13,37,12.40
2009,10,18,13,38,12.40
2009,10,18,13,39,12.40
2009,10,18,13,40,12.50
2009,10,18,13,41,12.50
2009,10,18,13,42,12.50
2009,10,18,13,43,12.50
2009,10,18,13,44,12.50
2009,10,18,13,45,12.50
2009,10,18,13,46,12.50
2009,10,18,13,47,12.50
2009,10,18,13,48,12.50
2009,10,18,13,49,12.50
2009,10,18,13,50,12.40
2009,10,18,13,51,12.40
2009,10,18,13,52,12.40
2009,10,18,13,53,12.40
2009,10,18,13,54,12.40
2009,10,18,13,55,12.50
2009,10,18,13,56,12.60
2009,10,18,13,57,12.60
2009,10,18,13,58,12.70
2009,10,18,13,59,12.70
2009,10,18,14,00,12.80
2009,10,18,14,01,12.80
2009,10,18,14,02,12.80
2009,10,18,14,03,12.90
2009,10,18,14,04,12.90
2009,10,18,14,05,12.90
2009,10,18,14,06,12.90
2009,10,18,14,07,12.90
2009,10,18,14,08,12.90
2009,10,18,14,09,12.90
2009,10,18,14,10,12.90
2009,10,18,14,11,12.90
2009,10,18,14,12,12.90
2009,10,18,14,13,12.90
2009,10,18,14,14,12.90
2009,10,18,14,15,12.90
2009,10,18,14,16,12.80
2009,10,18,14,17,12.80
2009,10,18,14,18,12.80
2009,10,18,14,19,12.70
2009,10,18,14,20,12.70
2009,10,18,14,21,12.70
2009,10,18,14,22,12.60
2009,10,18,14,23,12.60
2009,10,18,14,24,12.50
2009,10,18,14,25,12.50
2009,10,18,14,26,12.40
2009,10,18,14,27,12.40
2009,10,18,14,28,12.40
2009,10,18,14,29,12.40
2009,10,18,14,30,12.30
2009,10,18,14,31,12.30
2009,10,18,14,32,12.30
2009,10,18,14,33,12.30
2009,10,18,14,34,12.30
2009,10,18,14,35,12.30
2009,10,18,14,36,12.30
2009,10,18,14,37,12.30
2009,10,18,14,38,12.30
2009,10,18,14,39,12.20
2009,10,18,14,40,12.20
2009,10,18,14,41,12.20
2009,10,18,14,42,12.20
2009,10,18,14,43,12.20
2009,10,18,14,44,12.20
2009,10,18,14,45,12.20
2009,10,18,14,46,12.20
2009,10,18,14,47,12.20
2009,10,18,14,48,12.20
2009,10,18,14,49,12.30
2009,10,18,14,50,12.30
2009,10,18,14,51,12.30
2009,10,18,14,52,12.30
2009,10,18,14,53,12.20
2009,10,18,14,54,12.20
2009,10,18,14,55,12.20
2009,10,18,14,56,12.20
2009,10,18,14,57,12.20
2009,10,18,14,58,12.20
2009,10,18,14,59,12.20
2009,10,18,15,00,12.20
2009,10,18,15,01,12.20
2009,10,18,15,02,12.20
2009,10,18,15,03,12.20
2009,10,18,15,04,12.20
2009,10,18,15,05,12.20
2009,10,18,15,06,12.20
2009,10,18,15,07,12.20
2009,10,18,15,08,12.20
2009,10,18,15,09,12.20
2009,10,18,15,10,12.20
2009,10,18,15,11,12.20
2009,10,18,15,12,12.20
2009,10,18,15,13,12.20
2009,10,18,15,14,12.20
2009,10,18,15,15,12.20
2009,10,18,15,16,12.20
2009,10,18,15,17,12.10
2009,10,18,15,18,12.10
2009,10,18,15,19,12.10
2009,10,18,15,20,12.10
2009,10,18,15,21,12.10
2009,10,18,15,22,12.10
2009,10,18,15,23,12.10
2009,10,18,15,24,12.10
2009,10,18,15,25,12.10
2009,10,18,15,26,12.10
2009,10,18,15,27,12.10
2009,10,18,15,28,12.00
2009,10,18,15,29,12.00
2009,10,18,15,30,12.00
2009,10,18,15,31,11.90
2009,10,18,15,32,11.90
2009,10,18,15,33,11.80
2009,10,18,15,34,11.80
2009,10,18,15,35,11.80
2009,10,18,15,36,11.70
2009,10,18,15,37,11.70
2009,10,18,15,38,11.70
2009,10,18,15,39,11.70
2009,10,18,15,40,11.70
2009,10,18,15,41,11.60
2009,10,18,15,42,11.60
2009,10,18,15,43,11.60
2009,10,18,15,44,11.60
2009,10,18,15,45,11.60
2009,10,18,15,46,11.60
2009,10,18,15,47,11.60
2009,10,18,15,48,11.60
2009,10,18,15,49,11.70
2009,10,18,15,50,11.70
2009,10,18,15,51,11.70
2009,10,18,15,52,11.70
2009,10,18,15,53,11.70
2009,10,18,15,54,11.70
2009,10,18,15,55,11.70
2009,10,18,15,56,11.70
2009,10,18,15,57,11.70
2009,10,18,15,58,11.80
2009,10,18,15,59,11.80
2009,10,18,16,00,11.80
2009,10,18,16,01,11.80
2009,10,18,16,02,11.80
2009,10,18,16,03,11.80
2009,10,18,16,04,11.80
2009,10,18,16,05,11.80
2009,10,18,16,06,11.90
2009,10,18,16,07,11.90
2009,10,18,16,08,11.90
2009,10,18,16,09,12.00
2009,10,18,16,10,12.00
2009,10,18,16,11,12.00
2009,10,18,16,12,12.10
2009,10,18,16,13,12.10
2009,10,18,16,14,12.10
2009,10,18,16,15,12.20
2009,10,18,16,16,12.20
2009,10,18,16,17,12.30
2009,10,18,16,18,12.30
2009,10,18,16,19,12.30
2009,10,18,16,20,12.30
2009,10,18,16,21,12.40
2009,10,18,16,22,12.40
2009,10,18,16,23,12.40
2009,10,18,16,24,12.50
2009,10,18,16,25,12.50
2009,10,18,16,26,12.60
2009,10,18,16,27,12.60
2009,10,18,16,28,12.60
2009,10,18,16,29,12.60
2009,10,18,16,30,12.60
2009,10,18,16,31,12.60
2009,10,18,16,32,12.70
2009,10,18,16,33,12.70
2009,10,18,16,34,12.70
2009,10,18,16,35,12.70
2009,10,18,16,36,12.70
2009,10,18,16,37,12.70
2009,10,18,16,38,12.70
2009,10,18,16,39,12.70
2009,10,18,16,40,12.70
2009,10,18,16,41,12.60
2009,10,18,16,42,12.60
2009,10,18,16,43,12.60
2009,10,18,16,44,12.60
2009,10,18,16,45,12.50
2009,10,18,16,46,12.50
2009,10,18,16,47,12.40
2009,10,18,16,48,12.40
2009,10,18,16,49,12.40
2009,10,18,16,50,12.30
2009,10,18,16,51,12.30
2009,10,18,16,52,12.30
2009,10,18,16,53,12.30
2009,10,18,16,54,12.30
2009,10,18,16,55,12.30
2009,10,18,16,56,12.30
2009,10,18,16,57,12.30
2009,10,18,16,58,12.30
2009,10,18,16,59,12.30
2009,10,18,17,00,12.20
2009,10,18,17,01,12.20
2009,10,18,17,02,12.20
2009,10,18,17,03,12.20
2009,10,18,17,04,12.20
2009,10,18,17,05,12.20
2009,10,18,17,06,12.20
2009,10,18,17,07,12.20
2009,10,18,17,08,12.20
2009,10,18,17,09,12.10
2009,10,18,17,10,12.10
2009,10,18,17,11,12.10
2009,10,18,17,12,12.10
2009,10,18,17,13,12.10
2009,10,18,17,14,12.10
2009,10,18,17,15,12.10
2009,10,18,17,16,12.20
2009,10,18,17,17,12.20
2009,10,18,17,18,12.20
2009,10,18,17,19,12.20
2009,10,18,17,20,12.20
2009,10,18,17,21,12.20
2009,10,18,17,22,12.20
2009,10,18,17,23,12.20
2009,10,18,17,24,12.20
2009,10,18,17,25,12.20
2009,10,18,17,26,12.20
2009,10,18,17,27,12.20
2009,10,18,17,28,12.20
2009,10,18,17,29,12.20
